When you browse on this site, cookies collect data to enhance your experience and personalize the content and advertising you see.
Visit our Privacy Policy to learn more. By continuing to use the site, you agree to this use of cookies and data.
  • In Latvia
  • List of Countries
  • For 7 days
  • Water Temperature
  • Satellite Maps
  • Weather Map
  • Weather Widgets
  • user-avatar
    Login

    Hourly Weather Mauritius

    Today, 24 May, Friday

    Time Temperature Precipitation Wind Pressure Humidity
    00:00 +23°C° 0 mm 2 mps 725 mmHg 78%
    01:00 +23°C° 0 mm 2 mps 725 mmHg 78%
    02:00 +21°C° 0 mm 2 mps 725 mmHg 78%
    03:00 +21°C° 0 mm 2 mps 725 mmHg 78%
    04:00 +22°C° 0 mm 1 mps 724 mmHg 80%
    05:00 +22°C° 0 mm 1 mps 724 mmHg 80%
    06:00 +22°C° 0 mm 1 mps 725 mmHg 80%
    07:00 +22°C° 0 mm 1 mps 725 mmHg 79%
    08:00 +23°C° 0 mm 1 mps 725 mmHg 73%
    09:00 +25°C° 0 mm 1 mps 725 mmHg 67%
    10:00 +24°C° 0 mm 0 mps 725 mmHg 60%
    11:00 +27°C° 0 mm 1 mps 725 mmHg 59%
    12:00 +27°C° 0 mm 1 mps 725 mmHg 58%
    13:00 +28°C° 0 mm 1 mps 725 mmHg 57%
    14:00 +27°C° 0 mm 2 mps 724 mmHg 58%
    15:00 +27°C° 0 mm 2 mps 724 mmHg 60%
    16:00 +26°C° 0 mm 2 mps 724 mmHg 62%
    17:00 +26°C° 0 mm 2 mps 724 mmHg 65%
    18:00 +25°C° 0 mm 2 mps 724 mmHg 69%
    19:00 +24°C° 0 mm 2 mps 724 mmHg 73%
    20:00 +24°C° 0 mm 2 mps 724 mmHg 74%
    21:00 +24°C° 0 mm 2 mps 724 mmHg 75%
    22:00 +23°C° 0 mm 2 mps 725 mmHg 76%
    23:00 +23°C° 0 mm 2 mps 725 mmHg 77%

    Tomorrow, 25 May, Saturday

    Time Temperature Precipitation Wind Pressure Humidity
    00:00 +23°C° 0 mm 2 mps 724 mmHg 78%
    01:00 +23°C° 0 mm 1 mps 724 mmHg 78%
    02:00 +23°C° 0 mm 1 mps 724 mmHg 79%
    03:00 +23°C° 0 mm 1 mps 724 mmHg 79%
    04:00 +23°C° 0 mm 1 mps 724 mmHg 80%
    05:00 +23°C° 0 mm 1 mps 724 mmHg 80%
    06:00 +23°C° 0 mm 2 mps 724 mmHg 81%
    07:00 +23°C° 0 mm 2 mps 724 mmHg 81%
    08:00 +24°C° 0 mm 2 mps 725 mmHg 77%
    09:00 +25°C° 0 mm 2 mps 725 mmHg 73%
    10:00 +26°C° 0 mm 2 mps 725 mmHg 69%
    11:00 +26°C° 0.1 mm 2 mps 725 mmHg 69%
    12:00 +26°C° 0.1 mm 3 mps 725 mmHg 68%
    13:00 +26°C° 0.1 mm 3 mps 725 mmHg 68%
    14:00 +26°C° 0.1 mm 3 mps 724 mmHg 70%
    15:00 +25°C° 0.1 mm 4 mps 724 mmHg 73%
    16:00 +25°C° 0.1 mm 4 mps 724 mmHg 75%
    17:00 +23°C° 0.1 mm 4 mps 724 mmHg 78%
    18:00 +23°C° 0.1 mm 5 mps 724 mmHg 81%
    19:00 +22°C° 0.1 mm 5 mps 724 mmHg 84%
    20:00 +22°C° 0 mm 5 mps 725 mmHg 84%
    21:00 +22°C° 0 mm 5 mps 725 mmHg 84%
    22:00 +22°C° 0 mm 6 mps 725 mmHg 84%
    23:00 +22°C° 0 mm 6 mps 725 mmHg 84%

    Day after tomorrow, 26 May, Sunday

    Time Temperature Precipitation Wind Pressure Humidity
    00:00 +22°C° 0 mm 6 mps 725 mmHg 84%
    01:00 +22°C° 0 mm 6 mps 725 mmHg 84%
    02:00 +22°C° 0 mm 6 mps 724 mmHg 84%
    03:00 +22°C° 0 mm 6 mps 724 mmHg 84%
    04:00 +22°C° 0 mm 6 mps 724 mmHg 85%
    05:00 +21°C° 0 mm 6 mps 724 mmHg 84%
    06:00 +21°C° 0 mm 6 mps 724 mmHg 84%
    07:00 +21°C° 0 mm 6 mps 724 mmHg 84%
    08:00 +22°C° 0 mm 6 mps 725 mmHg 80%
    09:00 +23°C° 0 mm 6 mps 725 mmHg 76%
    10:00 +23°C° 0 mm 6 mps 725 mmHg 72%
    11:00 +24°C° 0 mm 6 mps 725 mmHg 70%
    12:00 +24°C° 0 mm 6 mps 725 mmHg 67%
    13:00 +24°C° 0 mm 6 mps 724 mmHg 64%
    14:00 +24°C° 0 mm 6 mps 724 mmHg 65%
    15:00 +23°C° 0 mm 6 mps 724 mmHg 67%
    16:00 +23°C° 0 mm 6 mps 724 mmHg 68%
    17:00 +22°C° 0 mm 6 mps 724 mmHg 70%
    18:00 +22°C° 0 mm 6 mps 724 mmHg 72%
    19:00 +21°C° 0 mm 6 mps 724 mmHg 75%
    20:00 +21°C° 0 mm 6 mps 724 mmHg 75%
    21:00 +21°C° 0 mm 6 mps 724 mmHg 75%
    22:00 +21°C° 0 mm 5 mps 724 mmHg 75%
    23:00 +21°C° 0 mm 5 mps 724 mmHg 75%

    27 May, Monday

    Time Temperature Precipitation Wind Pressure Humidity
    00:00 +21°C° 0 mm 5 mps 724 mmHg 76%
    01:00 +21°C° 0 mm 5 mps 724 mmHg 76%
    02:00 +21°C° 0 mm 5 mps 724 mmHg 76%
    03:00 +21°C° 0 mm 5 mps 724 mmHg 75%
    04:00 +20°C° 0 mm 5 mps 723 mmHg 75%
    05:00 +21°C° 0 mm 5 mps 724 mmHg 75%
    06:00 +21°C° 0 mm 5 mps 724 mmHg 74%
    07:00 +21°C° 0 mm 5 mps 724 mmHg 74%
    08:00 +21°C° 0 mm 5 mps 725 mmHg 71%
    09:00 +22°C° 0 mm 5 mps 725 mmHg 68%
    10:00 +23°C° 0 mm 6 mps 725 mmHg 65%
    11:00 +23°C° 0 mm 6 mps 725 mmHg 63%
    12:00 +24°C° 0 mm 6 mps 725 mmHg 61%
    13:00 +24°C° 0 mm 6 mps 724 mmHg 59%
    14:00 +24°C° 0 mm 6 mps 724 mmHg 59%
    15:00 +23°C° 0 mm 6 mps 724 mmHg 60%
    16:00 +23°C° 0 mm 6 mps 724 mmHg 60%
    17:00 +22°C° 0 mm 6 mps 724 mmHg 62%
    18:00 +22°C° 0 mm 6 mps 724 mmHg 64%
    19:00 +21°C° 0 mm 6 mps 725 mmHg 66%
    20:00 +21°C° 0 mm 6 mps 725 mmHg 67%
    21:00 +21°C° 0 mm 6 mps 725 mmHg 69%
    22:00 +21°C° 0 mm 6 mps 726 mmHg 70%
    23:00 +21°C° 0 mm 6 mps 725 mmHg 70%

    28 May, Tuesday

    Time Temperature Precipitation Wind Pressure Humidity
    00:00 +21°C° 0 mm 6 mps 725 mmHg 70%
    01:00 +21°C° 0 mm 6 mps 725 mmHg 70%
    02:00 +21°C° 0 mm 6 mps 725 mmHg 70%
    03:00 +21°C° 0 mm 6 mps 725 mmHg 71%
    04:00 +21°C° 0 mm 6 mps 724 mmHg 71%
    05:00 +21°C° 0 mm 6 mps 725 mmHg 72%
    06:00 +21°C° 0 mm 6 mps 725 mmHg 73%
    07:00 +21°C° 0 mm 6 mps 726 mmHg 73%
    08:00 +21°C° 0.1 mm 6 mps 726 mmHg 73%
    09:00 +22°C° 0.1 mm 7 mps 726 mmHg 73%
    10:00 +23°C° 0.1 mm 7 mps 727 mmHg 72%
    11:00 +23°C° 0.2 mm 8 mps 726 mmHg 73%
    12:00 +22°C° 0.2 mm 8 mps 726 mmHg 73%
    13:00 +22°C° 0.2 mm 8 mps 725 mmHg 73%
    14:00 +22°C° 0.2 mm 8 mps 725 mmHg 73%
    15:00 +22°C° 0.2 mm 8 mps 725 mmHg 73%
    16:00 +22°C° 0.2 mm 8 mps 725 mmHg 74%
    17:00 +22°C° 0.2 mm 8 mps 725 mmHg 75%
    18:00 +22°C° 0.2 mm 8 mps 726 mmHg 76%
    19:00 +21°C° 0.2 mm 8 mps 726 mmHg 77%
    20:00 +21°C° 0 mm 8 mps 726 mmHg 78%
    21:00 +21°C° 0 mm 8 mps 726 mmHg 78%
    22:00 +21°C° 0 mm 8 mps 727 mmHg 78%
    23:00 +21°C° 0 mm 8 mps 726 mmHg 78%

    29 May, Wednesday

    Time Temperature Precipitation Wind Pressure Humidity
    00:00 +21°C° 0 mm 8 mps 726 mmHg 78%
    01:00 +21°C° 0 mm 8 mps 726 mmHg 78%
    02:00 +21°C° 0 mm 8 mps 726 mmHg 78%
    03:00 +21°C° 0 mm 7 mps 725 mmHg 77%
    04:00 +21°C° 0 mm 7 mps 725 mmHg 76%
    05:00 +21°C° 0 mm 7 mps 726 mmHg 76%
    06:00 +21°C° 0 mm 7 mps 726 mmHg 76%
    07:00 +21°C° 0 mm 7 mps 726 mmHg 76%
    08:00 +21°C° 0 mm 7 mps 726 mmHg 72%
    09:00 +22°C° 0 mm 7 mps 727 mmHg 69%
    10:00 +23°C° 0 mm 8 mps 727 mmHg 65%
    11:00 +23°C° 0 mm 7 mps 726 mmHg 64%
    12:00 +24°C° 0 mm 7 mps 726 mmHg 63%
    13:00 +24°C° 0 mm 7 mps 725 mmHg 62%
    14:00 +23°C° 0 mm 7 mps 725 mmHg 64%
    15:00 +23°C° 0 mm 7 mps 725 mmHg 66%
    16:00 +23°C° 0 mm 7 mps 725 mmHg 68%
    17:00 +22°C° 0 mm 7 mps 725 mmHg 70%
    18:00 +22°C° 0 mm 6 mps 725 mmHg 73%
    19:00 +21°C° 0 mm 6 mps 725 mmHg 75%
    20:00 +21°C° 0 mm 6 mps 726 mmHg 76%
    21:00 +21°C° 0 mm 5 mps 726 mmHg 77%
    22:00 +21°C° 0 mm 5 mps 726 mmHg 77%
    23:00 +21°C° 0 mm 5 mps 725 mmHg 77%
    Show more